H1 CPF 2 NER 2021 4 11 9 101 01 glonass141 H2 1908801 9141 44850 2021 4 11 0 0 0 2021 4 14 23 45 0 900 1 1 0 0 0 1 H9 10 0 59315 0.00000 0 6531254.922 -22515370.597 -10028062.202 10 0 59315 900.00000 0 6859111.126 -23532153.533 -7039329.401 10 0 59315 1800.00000 0 6970866.873 -24221004.486 -3913746.343 10 0 59315 2700.00000 0 6910344.322 -24546162.768 -712108.741 10 0 59315 3600.00000 0 6727909.496 -24483586.666 2503364.341 10 0 59315 4500.00000 0 6478094.369 -24022007.595 5670243.123 10 0 59315 5400.00000 0 6217053.143 -23163465.956 8727099.436 10 0 59315 6300.00000 0 5999961.095 -21923307.125 11614694.973 10 0 59315 7200.00000 0 5878466.307 -20329638.890 14277122.497 10 0 59315 8100.00000 0 5898301.801 -18422274.022 16662878.425 10 0 59315 9000.00000 0 6097158.351 -16251202.871 18725847.015 10 0 59315 9900.00000 0 6502906.848 -13874660.092 20426178.204 10 0 59315 10800.00000 0 7132244.265 -11356865.880 21731043.665 10 0 59315 11700.00000 0 7989819.438 -8765534.992 22615257.965 10 0 59315 12600.00000 0 9067874.969 -6169255.958 23061754.211 10 0 59315 13500.00000 0 10346420.290 -3634847.677 23061906.291 10 0 59315 14400.00000 0 11793929.213 -1224801.185 22615692.278 10 0 59315 15300.00000 0 13368533.810 1005089.195 21731696.274 10 0 59315 16200.00000 0 15019666.205 3007809.016 20426948.567 10 0 59315 17100.00000 0 16690081.499 4746836.446 18726606.552 10 0 59315 18000.00000 0 18318179.186 6197414.699 16663481.585 10 0 59315 18900.00000 0 19840527.872 7347332.230 14277419.546 10 0 59315 19800.00000 0 21194489.323 8197178.712 11614545.472 10 0 59315 20700.00000 0 22320833.074 8760066.178 8726385.380 10 0 59315 21600.00000 0 23166232.636 9060826.886 5668880.749 10 0 59315 22500.00000 0 23685538.553 9134721.223 2501313.562 10 0 59315 23400.00000 0 23843732.139 9025709.542 -714838.035 10 0 59315 24300.00000 0 23617476.603 8784360.513 -3917091.661 10 0 59315 25200.00000 0 22996198.640 8465484.170 -7043177.087 10 0 59315 26100.00000 0 21982653.102 8125589.941 -10032252.899 10 0 59315 27000.00000 0 20592944.975 7820277.812 -12826099.069 10 0 59315 27900.00000 0 18856005.809 7601674.023 -15370261.264 10 0 59315 28800.00000 0 16812544.999 7516021.109 -17615123.412 10 0 59315 29700.00000 0 14513518.608 7601525.844 -19516886.578 10 0 59315 30600.00000 0 12018179.063 7886557.768 -21038434.072 10 0 59315 31500.00000 0 9391787.018 8388276.105 -22150064.956 10 0 59315 32400.00000 0 6703081.014 9111744.639 -22830081.037 10 0 59315 33300.00000 0 4021610.854 10049573.263 -23065215.387 10 0 59315 34200.00000 0 1415046.469 11182102.342 -22850893.723 10 0 59315 35100.00000 0 -1053425.087 12478122.888 -22191323.482 10 0 59315 36000.00000 0 -3327505.743 13896102.558 -21099408.867 10 0 59315 36900.00000 0 -5359895.193 15385865.909 -19596493.756 10 0 59315 37800.00000 0 -7114014.797 16890657.886 -17711937.823 10 0 59315 38700.00000 0 -8565275.494 18349503.235 -15482534.573 10 0 59315 39600.00000 0 -9701837.949 19699761.822 -12951783.311 10 0 59315 40500.00000 0 -10524834.950 20879771.618 -10169029.952 10 0 59315 41400.00000 0 -11048048.876 21831467.415 -7188494.231 10 0 59315 42300.00000 0 -11297060.143 22502864.494 -4068203.316 10 0 59315 43200.00000 0 -11307904.991 22850302.422 -868853.473 10 0 59315 44100.00000 0 -11125301.586 22840354.545 2347377.120 10 0 59315 45000.00000 0 -10800521.406 22451323.131 5518040.486 10 0 59315 45900.00000 0 -10388997.567 21674257.926 8581631.782 10 0 59315 46800.00000 0 -9947772.343 20513456.074 11478779.294 10 0 59315 47700.00000 0 -9532892.348 18986423.357 14153388.442 10 0 59315 48600.00000 0 -9196861.494 17123299.174 16553718.170 10 0 59315 49500.00000 0 -8986258.753 14965769.912 18633369.824 10 0 59315 50400.00000 0 -8939620.380 12565516.426 20352170.503 10 0 59315 51300.00000 0 -9085674.764 9982260.172 21676935.311 10 0 59315 52200.00000 0 -9442003.117 7281488.643 22582095.271 10 0 59315 53100.00000 0 -10014181.433 4531953.604 23050180.210 10 0 59315 54000.00000 0 -10795439.184 1803044.352 23072148.533 10 0 59315 54900.00000 0 -11766849.076 -837856.914 22647558.398 10 0 59315 55800.00000 0 -12898040.347 -3327929.945 21784577.386 10 0 59315 56700.00000 0 -14148406.773 -5611277.673 20499830.457 10 0 59315 57600.00000 0 -15468760.227 -7640997.759 18818088.502 10 0 59315 58500.00000 0 -16803362.238 -9380879.965 16771802.535 10 0 59315 59400.00000 0 -18092250.246 -10806659.989 14400491.171 10 0 59315 60300.00000 0 -19273762.711 -11906778.304 11749991.650 10 0 59315 61200.00000 0 -20287158.477 -12682612.548 8871587.352 10 0 59315 62100.00000 0 -21075221.277 -13148173.755 5821027.198 10 0 59315 63000.00000 0 -21586740.162 -13329278.813 2657454.678 10 0 59315 63900.00000 0 -21778761.132 -13262233.444 -557733.489 10 0 59315 64800.00000 0 -21618514.195 -12992080.725 -3762077.415 10 0 59315 65700.00000 0 -21084933.141 -12570488.743 -6893269.701 10 0 59315 66600.00000 0 -20169702.122 -12053366.537 -9890372.583 10 0 59315 67500.00000 0 -18877782.809 -11498309.427 -12695012.178 10 0 59315 68400.00000 0 -17227397.754 -10961982.434 -15252525.657 10 0 59315 69300.00000 0 -15249468.662 -10497553.475 -17513037.796 10 0 59315 70200.00000 0 -12986531.418 -10152286.165 -19432444.903 10 0 59315 71100.00000 0 -10491172.015 -9965395.394 -20973285.911 10 0 59315 72000.00000 0 -7824048.055 -9966257.778 -22105482.721 10 0 59315 72900.00000 0 -5051578.093 -10173053.908 -22806934.699 10 0 59315 73800.00000 0 -2243395.220 -10591900.922 -23063955.247 10 0 59315 74700.00000 0 530328.589 -11216512.861 -22871541.587 10 0 59315 75600.00000 0 3201575.511 -12028403.775 -22233472.410 10 0 59315 76500.00000 0 5707079.783 -12997625.234 -21162231.500 10 0 59315 77400.00000 0 7990721.935 -14084007.071 -19678759.004 10 0 59315 78300.00000 0 10005619.711 -15238848.678 -17812035.552 10 0 59315 79200.00000 0 11715828.965 -16406988.926 -15598507.747 10 0 59315 80100.00000 0 13097584.368 -17529166.614 -13081366.899 10 0 59315 81000.00000 0 14140029.516 -18544571.043 -10309695.784 10 0 59315 81900.00000 0 14845407.741 -19393474.266 -7337500.889 10 0 59315 82800.00000 0 15228707.755 -20019833.249 -4222650.005 10 0 59315 83700.00000 0 15316781.483 -20373751.641 -1025736.826 10 0 59315 84600.00000 0 15146973.650 -20413697.072 2191104.476 10 0 59315 85500.00000 0 14765323.157 -20108380.555 5365410.730 10 0 59316 0.00000 0 14224414.095 -19438219.211 8435603.183 10 0 59316 900.00000 0 13580968.735 -18396320.854 11342179.412 10 0 59316 1800.00000 0 12893284.577 -16988950.999 14028859.718 10 0 59316 2700.00000 0 12218624.816 -15235461.324 16443667.503 10 0 59316 3600.00000 0 11610671.041 -13167685.137 18539922.784 10 0 59316 4500.00000 0 11117145.507 -10828824.069 20277131.029 10 0 59316 5400.00000 0 10777701.628 -8271872.871 21621751.601 10 0 59316 6300.00000 0 10622170.273 -5557647.103 22547832.457 10 0 59316 7200.00000 0 10669234.253 -2752494.777 23037500.267 10 0 59316 8100.00000 0 10925585.632 74214.562 23081297.762 10 0 59316 9000.00000 0 11385600.573 2852721.095 22678362.692 10 0 59316 9900.00000 0 12031545.208 5515519.150 21836445.373 10 0 59316 10800.00000 0 12834304.288 7999907.403 20571764.472 10 0 59316 11700.00000 0 13754602.992 10250341.086 18908703.215 10 0 59316 12600.00000 0 14744671.943 12220490.248 16879350.944 10 0 59316 13500.00000 0 15750287.147 13874919.954 14522897.534 10 0 59316 14400.00000 0 16713100.773 15190323.376 11884890.783 10 0 59316 15300.00000 0 17573166.262 16156256.736 9016369.641 10 0 59316 16200.00000 0 18271552.609 16775345.451 5972888.516 10 0 59316 17100.00000 0 18752938.307 17062952.532 2813450.315 10 0 59316 18000.00000 0 18968075.577 17046322.593 -400631.896 10 0 59316 18900.00000 0 18876020.304 16763236.935 -3606923.019 10 0 59316 19800.00000 0 18446032.313 16260235.862 -6743080.812 10 0 59316 20700.00000 0 17659064.067 15590482.901 -9748073.436 10 0 59316 21600.00000 0 16508772.849 14811361.181 -12563375.344 10 0 59316 22500.00000 0 15002011.477 13981903.812 -15134117.254 10 0 59316 23400.00000 0 13158774.620 13160167.586 -17410166.685 10 0 59316 24300.00000 0 11011600.864 12400661.958 -19347116.925 10 0 59316 25200.00000 0 8604453.843 11751943.032 -20907164.122 10 0 59316 26100.00000 0 5991127.995 11254475.450 -22059854.468 10 0 59316 27000.00000 0 3233244.790 10938853.565 -22782686.202 10 0 59316 27900.00000 0 397922.626 10824457.981 -23061554.199 10 0 59316 28800.00000 0 -2444782.338 10918604.874 -22891028.106 10 0 59316 29700.00000 0 -5224557.558 11216224.398 -22274458.501 10 0 59316 30600.00000 0 -7873525.707 11700081.825 -21223909.028 10 0 59316 31500.00000 0 -10328833.943 12341531.833 -19759915.986 10 0 59316 32400.00000 0 -12535032.908 13101773.554 -17911080.433 10 0 59316 33300.00000 0 -14446146.434 13933552.621 -15713501.152 10 0 59316 34200.00000 0 -16027346.072 14783237.345 -13210060.190 10 0 59316 35100.00000 0 -17256161.525 15593180.286 -10449575.632 10 0 59316 36000.00000 0 -18123177.817 16304264.373 -7485838.922 10 0 59316 36900.00000 0 -18632191.798 16858525.015 -4376556.515 10 0 59316 37800.00000 0 -18799823.611 17201736.634 -1182217.418 10 0 59316 38700.00000 0 -18654601.827 17285853.821 2035090.434 10 0 59316 39600.00000 0 -18235563.016 17071203.785 5212891.041 10 0 59316 40500.00000 0 -17590426.902 16528337.687 8289534.342 10 0 59316 41400.00000 0 -16773425.752 15639463.096 11205389.549 10 0 59316 42300.00000 0 -15842880.751 14399397.802 13903994.613 10 0 59316 43200.00000 0 -14858628.155 12816005.432 16333140.116 10 0 59316 44100.00000 0 -13879403.644 10910095.021 18445867.429 10 0 59316 45000.00000 0 -12960294.437 8714789.041 20201363.002 10 0 59316 45900.00000 0 -12150365.278 6274386.140 21565732.927 10 0 59316 46800.00000 0 -11490556.652 3642765.467 22512644.343 10 0 59316 47700.00000 0 -11011941.972 881398.051 23023822.737 10 0 59316 48600.00000 0 -10734415.423 -1942953.615 23089396.798 10 0 59316 49500.00000 0 -10665864.278 -4760754.120 22708085.121 10 0 59316 50400.00000 0 -10801859.625 -7502329.373 21887221.576 10 0 59316 51300.00000 0 -11125878.221 -10100509.492 20642618.885 10 0 59316 52200.00000 0 -11610046.444 -12493172.873 18998272.473 10 0 59316 53100.00000 0 -12216375.905 -14625587.643 16985909.377 10 0 59316 54000.00000 0 -12898440.002 -16452454.753 14644389.604 10 0 59316 54900.00000 0 -13603422.297 -17939568.792 12018969.940 10 0 59316 55800.00000 0 -14274451.908 -19065027.744 9160442.915 10 0 59316 56700.00000 0 -14853128.687 -19819941.338 6124166.076 10 0 59316 57600.00000 0 -15282132.523 -20208607.975 2968999.089 10 0 59316 58500.00000 0 -15507806.877 -20248152.249 -243831.553 10 0 59316 59400.00000 0 -15482607.109 -19967637.529 -3451918.680 10 0 59316 60300.00000 0 -15167309.178 -19406690.279 -6592888.525 10 0 59316 61200.00000 0 -14532883.876 -18613693.477 -9605618.643 10 0 59316 62100.00000 0 -13561955.471 -17643625.067 -12431435.351 10 0 59316 63000.00000 0 -12249780.880 -16555632.666 -15015266.460 10 0 59316 63900.00000 0 -10604705.746 -15410447.296 -17306725.655 10 0 59316 64800.00000 0 -8648075.867 -14267745.975 -19261106.393 10 0 59316 65700.00000 0 -6413605.568 -13183575.346 -20840264.871 10 0 59316 66600.00000 0 -3946227.834 -12207946.061 -22013373.925 10 0 59316 67500.00000 0 -1300473.018 -11382700.341 -22757532.459 10 0 59316 68400.00000 0 1461556.934 -10739743.450 -23058217.997 10 0 59316 69300.00000 0 4272534.487 -10299714.235 -22909573.162 10 0 59316 70200.00000 0 7062474.946 -10071151.064 -22314520.390 10 0 59316 71100.00000 0 9761420.093 -10050188.220 -21284702.598 10 0 59316 72000.00000 0 12302124.735 -10220795.169 -19840251.168 10 0 59316 72900.00000 0 14622633.983 -10555547.816 -18009386.059 10 0 59316 73800.00000 0 16668643.702 -11016898.191 -15827856.276 10 0 59316 74700.00000 0 18395545.705 -11558887.695 -13338232.250 10 0 59316 75600.00000 0 19770072.926 -12129230.185 -10589064.630 10 0 59316 76500.00000 0 20771476.758 -12671675.462 -7633926.739 10 0 59316 77400.00000 0 21392188.650 -13128551.979 -4530360.328 10 0 59316 78300.00000 0 21637940.109 -13443380.091 -1338746.163 10 0 59316 79200.00000 0 21527338.131 -13563444.534 1878877.691 10 0 59316 80100.00000 0 21090916.120 -13442216.849 5060025.975 10 0 59316 81000.00000 0 20369702.344 -13041525.209 8142980.654 10 0 59316 81900.00000 0 19413368.088 -12333380.145 11067985.795 10 0 59316 82800.00000 0 18278034.893 -11301379.582 13778399.681 10 0 59316 83700.00000 0 17023834.096 -9941634.451 16221782.358 10 0 59316 84600.00000 0 15712321.621 -8263176.402 18350898.415 10 0 59316 85500.00000 0 14403856.360 -6287830.840 20124616.682 10 0 59317 0.00000 0 13155051.341 -4049560.574 21508690.916 10 0 59317 900.00000 0 12016403.461 -1593306.668 22476408.031 10 0 59317 1800.00000 0 11030198.849 1026625.026 23009092.460 10 0 59317 2700.00000 0 10228781.302 3748567.301 23096458.624 10 0 59317 3600.00000 0 9633253.010 6505802.332 22736805.388 10 0 59317 4500.00000 0 9252661.987 9229086.335 21937049.282 10 0 59317 5400.00000 0 9083708.725 11849285.447 20712595.901 10 0 59317 6300.00000 0 9110984.225 14300015.650 19087051.433 10 0 59317 7200.00000 0 9307729.542 16520179.065 17091778.954 10 0 59317 8100.00000 0 9637085.623 18456292.869 14765306.758 10 0 59317 9000.00000 0 10053781.865 20064515.146 12152598.599 10 0 59317 9900.00000 0 10506193.474 21312283.840 9304198.419 10 0 59317 10800.00000 0 10938682.041 22179500.581 6275264.600 10 0 59317 11700.00000 0 11294121.426 22659209.551 3124511.148 10 0 59317 12600.00000 0 11516502.761 22757742.254 -86924.503 10 0 59317 13500.00000 0 11553508.386 22494321.260 -3296665.628 10 0 59317 14400.00000 0 11358945.201 21900138.640 -6442309.399 10 0 59317 15300.00000 0 10894933.328 21016947.034 -9462645.125 10 0 59317 16200.00000 0 10133755.762 19895222.090 -12298853.194 10 0 59317 17100.00000 0 9059288.713 18591973.397 -14895660.503 10 0 59317 18000.00000 0 7667949.920 17168296.231 -17202428.700 10 0 59317 18900.00000 0 5969122.527 15686767.691 -19174152.992 10 0 59317 19800.00000 0 3985034.323 14208797.546 -20772351.015 10 0 59317 20700.00000 0 1750095.464 12792046.237 -21965823.452 10 0 59317 21600.00000 0 -690279.260 11488019.565 -22731270.880 10 0 59317 22500.00000 0 -3281315.502 10339942.050 -23053754.259 10 0 59317 23400.00000 0 -5960923.684 9380999.012 -22926989.717 10 0 59317 24300.00000 0 -8662057.520 8633021.567 -22353471.738 10 0 59317 25200.00000 0 -11315288.311 8105669.730 -21344422.339 10 0 59317 26100.00000 0 -13851487.290 7796147.518 -19919567.389 10 0 59317 27000.00000 0 -16204503.812 7689461.120 -18106744.754 10 0 59317 27900.00000 0 -18313727.370 7759208.035 -15941352.304 10 0 59317 28800.00000 0 -20126426.273 7968862.401 -13465647.195 10 0 59317 29700.00000 0 -21599765.493 8273500.598 -10727910.772 10 0 59317 30600.00000 0 -22702419.858 8621892.530 -7781496.217 10 0 59317 31500.00000 0 -23415715.959 8958868.535 -4683778.489 10 0 59317 32400.00000 0 -23734256.346 9227860.361 -1495027.974 10 0 59317 33300.00000 0 -23666001.535 9373507.501 1722769.305 10 0 59317 34200.00000 0 -23231808.300 9344217.801 4907121.047 10 0 59317 35100.00000 0 -22464445.706 9094573.564 7996243.510 10 0 59317 36000.00000 0 -21407132.090 8587481.349 10930257.931 10 0 59317 36900.00000 0 -20111656.122 7795974.912 13652345.274 10 0 59317 37800.00000 0 -18636162.004 6704595.645 16109837.399 10 0 59317 38700.00000 0 -17042692.413 5310292.856 18255224.386 10 0 59317 39600.00000 0 -15394592.239 3622806.416 20047059.609 10 0 59317 40500.00000 0 -13753881.300 1664515.858 21450746.509 10 0 59317 41400.00000 0 -12178704.858 -530238.088 22439193.415 10 0 59317 42300.00000 0 -10720967.064 -2916331.795 22993325.181 10 0 59317 43200.00000 0 -9424244.452 -5439489.008 23102443.103 10 0 59317 44100.00000 0 -8322064.825 -8038296.834 22764427.108 10 0 59317 45000.00000 0 -7436621.830 -10646525.547 21985776.837 10 0 59317 45900.00000 0 -6777977.574 -13195657.992 20781490.863 10 0 59317 46800.00000 0 -6343785.704 -15617525.772 19174785.882 10 0 59317 47700.00000 0 -6119546.195 -17846944.652 17196660.395 10 0 59317 48600.00000 0 -6079381.222 -19824241.399 14885310.022 10 0 59317 49500.00000 0 -6187300.058 -21497568.215 12285404.190 10 0 59317 50400.00000 0 -6398900.611 -22824909.015 9447236.641 10 0 59317 51300.00000 0 -6663436.845 -23775694.075 6425764.703 10 0 59317 52200.00000 0 -6926165.676 -24331955.238 3279554.582 10 0 59317 53100.00000 0 -7130874.841 -24488972.529 69652.285 10 0 59317 54000.00000 0 -7222484.940 -24255384.087 -3141598.483 10 0 59317 54900.00000 0 -7149615.252 -23652753.606 -6291768.625 10 0 59317 55800.00000 0 -6867003.775 -22714612.333 -9319562.171 10 0 59317 56700.00000 0 -6337677.651 -21485015.005 -12166016.703 10 0 59317 57600.00000 0 -5534780.247 -20016669.792 -14775661.418 10 0 59317 58500.00000 0 -4442975.493 -18368720.683 -17097609.131 10 0 59317 59400.00000 0 -3059367.820 -16604275.687 -19086559.897 10 0 59317 60300.00000 0 -1393896.531 -14787785.156 -20703695.641 10 0 59317 61200.00000 0 530814.144 -12982381.140 -21917447.392 10 0 59317 62100.00000 0 2680144.909 -11247290.256 -22704119.450 10 0 59317 63000.00000 0 5008683.786 -9635429.421 -23048357.752 10 0 59317 63900.00000 0 7461891.604 -8191286.004 -22943452.933 10 0 59317 64800.00000 0 9978161.590 -6949171.627 -22391471.992 10 0 59317 65700.00000 0 12491187.139 -5931922.814 -21403215.995 10 0 59317 66600.00000 0 14932538.664 -5150102.639 -19998004.762 10 0 59317 67500.00000 0 17234341.570 -4601735.927 -18203293.043 10 0 59317 68400.00000 0 19331943.098 -4272587.864 -16054126.079 10 0 59317 69300.00000 0 21166456.147 -4136972.611 -13592445.770 10 0 59317 70200.00000 0 22687073.591 -4159055.983 -10866261.715 10 0 59317 71100.00000 0 23853056.389 -4294595.192 -7928704.073 10 0 59317 72000.00000 0 24635312.675 -4493040.217 -4836977.745 10 0 59317 72900.00000 0 25017502.611 -4699906.145 -1651239.194 10 0 59317 73800.00000 0 24996623.931 -4859314.549 1566581.298 10 0 59317 74700.00000 0 24583055.184 -4916595.206 4753988.101 10 0 59317 75600.00000 0 23800056.628 -4820837.276 7849135.349 10 0 59317 76500.00000 0 22682751.501 -4527281.688 10792024.785 10 0 59317 77400.00000 0 21276632.018 -3999453.663 13525663.045 10 0 59317 78300.00000 0 19635654.060 -3210945.659 15997156.395 10 0 59317 79200.00000 0 17820001.191 -2146776.045 18158722.573 10 0 59317 80100.00000 0 15893611.893 -804266.796 19968601.215 10 0 59317 81000.00000 0 13921573.091 806596.333 21391846.722 10 0 59317 81900.00000 0 11967487.900 2663336.315 22400989.762 10 0 59317 82800.00000 0 10090926.136 4731683.206 22976556.073 10 0 59317 83700.00000 0 8345062.138 6966770.098 23107433.888 10 0 59317 84600.00000 0 6774596.459 9314778.221 22791083.879 10 0 59317 85500.00000 0 5414046.251 11714964.376 22033588.079 10 0 59318 0.00000 0 4286473.870 14101988.420 20849536.979 10 0 59318 900.00000 0 3402705.601 16408446.265 19261756.271 10 0 59318 1800.00000 0 2761071.709 18567504.936 17300878.174 10 0 59318 2700.00000 0 2347679.400 20515531.810 15004763.604 10 0 59318 3600.00000 0 2137205.928 22194610.422 12417785.413 10 0 59318 4500.00000 0 2094180.043 23554838.251 9589984.716 10 0 59318 5400.00000 0 2174697.981 24556311.222 6576115.206 10 0 59318 6300.00000 0 2328502.532 25170711.622 3434592.593 10 0 59318 7200.00000 0 2501338.015 25382432.149 226368.692 10 0 59318 8100.00000 0 2637481.845 25189187.878 -2986248.593 10 0 59318 9000.00000 0 2682345.519 24602089.092 -6140806.616 10 0 59318 9900.00000 0 2585034.260 23645170.481 -9175926.729 10 0 59318 10800.00000 0 2300755.841 22354395.233 -12032506.115 10 0 59318 11700.00000 0 1792975.003 20776174.788 -14654878.450 10 0 59318 12600.00000 0 1035220.411 18965465.798 -16991909.643 10 0 59318 13500.00000 0 12465.565 16983523.924 -18998006.259 10 0 59318 14400.00000 0 -1277976.915 14895408.853 -20634015.923 10 0 59318 15300.00000 0 -2826087.493 12767345.628 -21868001.171 10 0 59318 16200.00000 0 -4609315.899 10664053.547 -22675870.926 10 0 59318 17100.00000 0 -6593295.560 8646155.186 -23041856.724 10 0 59318 18000.00000 0 -8733067.505 6767774.741 -22958823.996 10 0 59318 18900.00000 0 -10974763.255 5074426.600 -22428412.178 10 0 59318 19800.00000 0 -13257676.662 3601282.618 -21461000.883 10 0 59318 20700.00000 0 -15516637.861 2371890.367 -20075502.939 10 0 59318 21600.00000 0 -17684589.812 1397395.245 -18298988.619 10 0 59318 22500.00000 0 -19695259.148 676297.810 -16166148.790 10 0 59318 23400.00000 0 -21485809.009 194754.883 -13718608.057 10 0 59318 24300.00000 0 -22999362.377 -72590.236 -11004102.017 10 0 59318 25200.00000 0 -24187290.032 -161285.634 -8075535.427 10 0 59318 26100.00000 0 -25011167.251 -115314.693 -4989940.699 10 0 59318 27000.00000 0 -25444317.660 15017.608 -1807357.928 10 0 59318 27900.00000 0 -25472880.316 175464.765 1410340.771 10 0 59318 28800.00000 0 -25096356.344 310382.942 4600658.853 10 0 59318 29700.00000 0 -24327613.653 365330.541 7701690.713 10 0 59318 30600.00000 0 -23192351.017 289612.505 10653320.961 10 0 59318 31500.00000 0 -21728045.523 38661.609 13398384.194 10 0 59318 32400.00000 0 -19982428.740 -423843.669 15883763.268 10 0 59318 33300.00000 0 -18011556.317 -1124213.603 18061405.597 10 0 59318 34200.00000 0 -15877552.143 -2077407.775 19889238.880 10 0 59318 35100.00000 0 -13646121.145 -3286177.560 21331969.996 10 0 59318 36000.00000 0 -11383933.732 -4740726.277 22361753.149 10 0 59318 36900.00000 0 -9155989.640 -6418901.278 22958715.815 10 0 59318 37800.00000 0 -7023069.305 -8286910.496 23111333.686 10 0 59318 38700.00000 0 -5039376.826 -10300534.592 22816648.370 10 0 59318 39600.00000 0 -3250470.653 -12406785.540 22080324.192 10 0 59318 40500.00000 0 -1691566.198 -14545944.389 20916543.107 10 0 59318 41400.00000 0 -386279.375 -16653895.399 19347739.307 10 0 59318 42300.00000 0 654137.743 -18664661.285 17404177.749 10 0 59318 43200.00000 0 1431038.058 -20513035.892 15123383.523 10 0 59318 44100.00000 0 1958087.669 -22137206.077 12549431.520 10 0 59318 45000.00000 0 2260453.259 -23481254.380 9732108.606 10 0 59318 45900.00000 0 2373502.476 -24497438.418 6725962.998 10 0 59318 46800.00000 0 2341071.416 -25148151.541 3589257.884 10 0 59318 47700.00000 0 2213371.755 -25407481.861 382848.689 10 0 59318 48600.00000 0 2044625.515 -25262303.151 -2830994.828 10 0 59318 49500.00000 0 1890527.471 -24712850.298 -5989798.952 10 0 59318 50400.00000 0 1805642.911 -23772753.491 -9032104.964 10 0 59318 51300.00000 0 1840851.747 -22468528.060 -11898672.363 10 0 59318 52200.00000 0 2040948.510 -20838539.928 -14533642.081 10 0 59318 53100.00000 0 2442501.397 -18931489.028 -16885635.894 10 0 59318 54000.00000 0 3072062.905 -16804473.565 -18908769.557 10 0 59318 54900.00000 0 3944809.739 -14520715.993 -20563558.888 10 0 59318 55800.00000 0 5063671.460 -12147046.075 -21817700.132 10 0 59318 56700.00000 0 6418986.555 -9751246.771 -22646708.661 10 0 59318 57600.00000 0 7988702.119 -7399374.505 -23034402.999 10 0 59318 58500.00000 0 9739110.058 -5153166.449 -22973224.304 10 0 59318 59400.00000 0 11626089.818 -3067643.661 -22464384.904 10 0 59318 60300.00000 0 13596806.064 -1189010.374 -21517842.969 10 0 59318 61200.00000 0 15591790.126 447062.805 -20152103.896 10 0 59318 62100.00000 0 17547317.771 1816700.634 -18393852.606 10 0 59318 63000.00000 0 19397983.176 2908578.193 -16277424.283 10 0 59318 63900.00000 0 21079360.487 3724138.866 -13844124.491 10 0 59318 64800.00000 0 22530640.820 4277268.219 -11141412.635 10 0 59318 65700.00000 0 23697133.531 4593439.689 -8221965.475 10 0 59318 66600.00000 0 24532526.510 4708370.439 -5142639.966 10 0 59318 67500.00000 0 25000810.645 4666246.459 -1963356.602 10 0 59318 68400.00000 0 25077788.064 4517594.092 1254074.091 10 0 59318 69300.00000 0 24752101.510 4316889.797 4447158.099 10 0 59318 70200.00000 0 24025742.703 4120010.733 7553933.463 10 0 59318 71100.00000 0 22914019.552 3981634.954 10514170.837 10 0 59318 72000.00000 0 21444984.846 3952701.562 13270535.703 10 0 59318 72900.00000 0 19658351.550 4078038.137 15769690.102 10 0 59318 73800.00000 0 17603940.916 4394255.193 17963313.370 10 0 59318 74700.00000 0 15339728.803 4927995.738 19809023.145 10 0 59318 75600.00000 0 12929571.688 5694612.946 21271180.299 10 0 59318 76500.00000 0 10440706.514 6697330.894 22321563.722 10 0 59318 77400.00000 0 7941127.425 7926923.252 22939903.404 10 0 59318 78300.00000 0 5496946.844 9361923.477 23114262.872 10 0 59318 79200.00000 0 3169848.679 10969358.295 22841264.636 10 0 59318 80100.00000 0 1014737.429 12705974.886 22126154.840 10 0 59318 81000.00000 0 -922321.168 14519912.005 20982706.041 10 0 59318 81900.00000 0 -2605784.244 16352747.186 19432959.526 10 0 59318 82800.00000 0 -4011872.026 18141836.466 17506811.320 10 0 59318 83700.00000 0 -5129313.637 19822850.936 15241448.628 10 0 59318 84600.00000 0 -5959568.029 21332405.838 12680646.055 10 0 59318 85500.00000 0 -6516510.925 22610673.519 9873933.693 99